Liberia, Costa Rica

9:27 PM CST on October 20, 2017 (GMT -0600)
Daniel Oduber Quiros International

Weather History for MRLB - April, 2013

Change the Weather History Date:

Thursday, April 18, 2013

  Actual Average Record
Temperature  
Mean Temperature 84 °F -  
Max Temperature 97 °F 91 °F 100 °F (1998)
Min Temperature 72 °F 76 °F 67 °F (2014)
Cooling Degree Days 20    
Growing Degree Days 34 (Base 50)    
Moisture  
Dew Point 66 °F    
Average Humidity 50    
Maximum Humidity 73    
Minimum Humidity 31    
Precipitation  
Precipitation 0.00 in - - ()
Sea Level Pressure  
Sea Level Pressure 29.79 in    
Wind  
Wind Speed 6 mph ()    
Max Wind Speed 13 mph    
Max Gust Speed -    
Visibility 7.9 miles    
Events      
Averages and records for this station are not official NWS values.
T = Trace of Precipitation, MM = Missing Value Source: Averaged Metar Reports

Daily Weather History Graph

Daily Weather History Graph

Search for Another Location

Airport or City:

Trip Planner

Search our weather history database for the weather conditions in past years. The results will help you decide how hot, cold, wet, or windy it might be!

Date:

Astronomy

Apr. 18, 2013 Rise Set
Actual Time 5:29 AM CST 5:53 PM CST
Civil Twilight 5:08 AM CST 6:14 PM CST
Nautical Twilight 4:43 AM CST 6:39 PM CST
Astronomical Twilight 4:17 AM CST 7:05 PM CST
Moon 11:52 AM CST (4/18) No Moon Set
Length of Visible Light 13h 06m
Length of Day
12h 23m
First Quarter, 52% of the Moon is Illuminated
Apr 18
First Quarter
Apr 25
Full
May 2
Last Quarter
May 9
New
May 17
First Quarter

Hourly Weather History & Observations

Time (CST) Temp. Heat Index Dew Point Humidity Pressure Visibility Wind Dir Wind Speed Gust Speed Precip Events Conditions
6:00 AM 75 °F - 66 °F 67% 29.81 in 12 mi East 2.3 mph - -   Clear
6:00 AM 75.2 °F - 66.2 °F 73% 29.80 in - East 2.3 mph - N/A   Clear
7:00 AM 77.0 °F - 66.2 °F 69% 29.80 in - West 3.5 mph - N/A   Clear
8:00 AM 82.4 °F 84.6 °F 66.2 °F 58% 29.82 in - North 3.5 mph - N/A   Clear
9:00 AM 91 °F - 64 °F 31% 29.82 in 12 mi NE 4.6 mph - -   Clear
9:00 AM 91.4 °F 93.2 °F 64.4 °F 41% 29.81 in - NE 4.6 mph - N/A   Clear
10:00 AM 91.4 °F 92.1 °F 62.6 °F 38% 29.80 in 6.2 mi East 11.5 mph - N/A   Mostly Cloudy
11:00 AM 93.2 °F 94.1 °F 62.6 °F 36% 29.80 in 6.2 mi East 10.4 mph - N/A   Mostly Cloudy
12:00 PM 95.0 °F 96.0 °F 62.6 °F 34% 29.79 in - NE 12.7 mph - N/A   Scattered Clouds
1:00 PM 93.2 °F 94.9 °F 64.4 °F 38% 29.76 in 6.2 mi SE 10.4 mph - N/A   Scattered Clouds
2:00 PM 91.4 °F 95.4 °F 68.0 °F 46% 29.73 in 6.2 mi WNW 6.9 mph - N/A   Scattered Clouds
3:00 PM 90 °F - 65 °F 34% 29.75 in 12 mi WSW 12.7 mph - -   Partly Cloudy
3:00 PM 89.6 °F 92.2 °F 66.2 °F 46% 29.73 in 6.2 mi WSW 12.7 mph - N/A   Scattered Clouds
4:00 PM 87.8 °F 90.4 °F 66.2 °F 49% 29.74 in 6.2 mi SSW 5.8 mph - N/A   Scattered Clouds
5:00 PM 86.0 °F 90.4 °F 69.8 °F 58% 29.77 in 6.2 mi South 8.1 mph - N/A   Scattered Clouds
6:00 PM 83 °F - 69 °F 55% 29.80 in 12 mi South 6.9 mph - -   Mostly Cloudy
6:00 PM 82.4 °F 86.3 °F 69.8 °F 66% 29.79 in 6.2 mi South 6.9 mph - N/A   Scattered Clouds
7:00 PM 82.4 °F 84.6 °F 66.2 °F 58% 29.79 in 6.2 mi East 8.1 mph - N/A   Scattered Clouds
8:00 PM 82.4 °F 85.4 °F 68.0 °F 62% 29.82 in 6.2 mi East 8.1 mph - N/A   Scattered Clouds